When you browse on this site, cookies collect data to enhance your experience and personalize the content and advertising you see.
Visit our Privacy Policy to learn more. By continuing to use the site, you agree to this use of cookies and data.
  • In United Kingdom
  • List of Countries
  • For 7 days
  • Water Temperature
  • Satellite Maps
  • Weather Map
  • Weather Widgets
  • user-avatar
    Login

    Hourly Weather Edinburgh

    Today, 25 April, Thursday

    Time Temperature Precipitation Wind Pressure Humidity
    00:00 +10°C° 0 mm 4 mps 742 mmHg 89%
    01:00 +10°C° 0.1 mm 3 mps 742 mmHg 89%
    02:00 +9°C° 0.1 mm 3 mps 743 mmHg 89%
    03:00 +9°C° 0.1 mm 3 mps 743 mmHg 90%
    04:00 +9°C° 0 mm 2 mps 743 mmHg 90%
    05:00 +8°C° 0 mm 2 mps 744 mmHg 91%
    06:00 +8°C° 0 mm 2 mps 744 mmHg 91%
    07:00 +10°C° 0 mm 2 mps 744 mmHg 82%
    08:00 +11°C° 0 mm 3 mps 745 mmHg 73%
    09:00 +13°C° 0 mm 3 mps 745 mmHg 64%
    10:00 +13°C° 0.2 mm 3 mps 745 mmHg 62%
    11:00 +14°C° 0.2 mm 4 mps 745 mmHg 60%
    12:00 +15°C° 0.2 mm 5 mps 745 mmHg 59%
    13:00 +14°C° 1.1 mm 5 mps 745 mmHg 65%
    14:00 +13°C° 1.1 mm 5 mps 745 mmHg 72%
    15:00 +13°C° 1.1 mm 5 mps 745 mmHg 78%
    16:00 +12°C° 1 mm 4 mps 745 mmHg 81%
    17:00 +12°C° 1 mm 3 mps 745 mmHg 83%
    18:00 +11°C° 1 mm 3 mps 745 mmHg 85%
    19:00 +12°C° 0.5 mm 2 mps 746 mmHg 86%
    20:00 +10°C° 0.5 mm 2 mps 746 mmHg 87%
    21:00 +9°C° 0.5 mm 2 mps 746 mmHg 88%
    22:00 +9°C° 0.1 mm 2 mps 746 mmHg 88%
    23:00 +8°C° 0.1 mm 2 mps 746 mmHg 89%

    Tomorrow, 26 April, Friday

    Time Temperature Precipitation Wind Pressure Humidity
    00:00 +8°C° 0.1 mm 2 mps 747 mmHg 89%
    01:00 +7°C° 0 mm 3 mps 747 mmHg 90%
    02:00 +7°C° 0 mm 3 mps 747 mmHg 90%
    03:00 +7°C° 0 mm 3 mps 747 mmHg 90%
    04:00 +7°C° 0.1 mm 3 mps 747 mmHg 90%
    05:00 +8°C° 0.1 mm 3 mps 747 mmHg 91%
    06:00 +9°C° 0.1 mm 3 mps 747 mmHg 91%
    07:00 +8°C° 0.3 mm 4 mps 747 mmHg 88%
    08:00 +10°C° 0.3 mm 4 mps 747 mmHg 85%
    09:00 +10°C° 0.3 mm 5 mps 747 mmHg 83%
    10:00 +10°C° 0.2 mm 5 mps 747 mmHg 81%
    11:00 +12°C° 0.2 mm 5 mps 747 mmHg 80%
    12:00 +12°C° 0.2 mm 5 mps 746 mmHg 78%
    13:00 +10°C° 0.3 mm 5 mps 746 mmHg 81%
    14:00 +11°C° 0.3 mm 4 mps 746 mmHg 84%
    15:00 +11°C° 0.3 mm 4 mps 746 mmHg 87%
    16:00 +10°C° 0.3 mm 4 mps 746 mmHg 88%
    17:00 +8°C° 0.3 mm 4 mps 746 mmHg 88%
    18:00 +8°C° 0.3 mm 4 mps 747 mmHg 89%
    19:00 +7°C° 0.1 mm 4 mps 746 mmHg 89%
    20:00 +8°C° 0.1 mm 3 mps 746 mmHg 90%
    21:00 +7°C° 0.1 mm 3 mps 746 mmHg 90%
    22:00 +7°C° 0.4 mm 3 mps 746 mmHg 90%
    23:00 +7°C° 0.4 mm 3 mps 745 mmHg 91%

    Day after tomorrow, 27 April, Saturday

    Time Temperature Precipitation Wind Pressure Humidity
    00:00 +7°C° 0.4 mm 2 mps 745 mmHg 91%
    01:00 +7°C° 0.1 mm 3 mps 745 mmHg 92%
    02:00 +5°C° 0.1 mm 3 mps 745 mmHg 94%
    03:00 +5°C° 0.1 mm 3 mps 745 mmHg 95%
    04:00 +5°C° 0 mm 3 mps 746 mmHg 95%
    05:00 +6°C° 0 mm 2 mps 747 mmHg 95%
    06:00 +6°C° 0 mm 2 mps 747 mmHg 95%
    07:00 +7°C° 0.1 mm 2 mps 748 mmHg 92%
    08:00 +8°C° 0.1 mm 3 mps 749 mmHg 89%
    09:00 +9°C° 0.1 mm 3 mps 750 mmHg 87%
    10:00 +10°C° 0.1 mm 3 mps 751 mmHg 83%
    11:00 +10°C° 0.1 mm 3 mps 752 mmHg 79%
    12:00 +11°C° 0.1 mm 4 mps 752 mmHg 76%
    13:00 +10°C° 0.5 mm 5 mps 753 mmHg 78%
    14:00 +10°C° 0.5 mm 6 mps 754 mmHg 79%
    15:00 +9°C° 0.5 mm 7 mps 755 mmHg 81%
    16:00 +9°C° 0.1 mm 7 mps 756 mmHg 80%
    17:00 +9°C° 0.1 mm 7 mps 756 mmHg 79%
    18:00 +8°C° 0.1 mm 7 mps 757 mmHg 78%
    19:00 +8°C° 0 mm 6 mps 758 mmHg 79%
    20:00 +7°C° 0 mm 5 mps 759 mmHg 80%
    21:00 +6°C° 0 mm 5 mps 760 mmHg 81%
    22:00 +6°C° 0 mm 4 mps 760 mmHg 81%
    23:00 +6°C° 0 mm 4 mps 761 mmHg 81%

    28 April, Sunday

    Time Temperature Precipitation Wind Pressure Humidity
    00:00 +7°C° 0 mm 3 mps 761 mmHg 80%
    01:00 +7°C° 0 mm 3 mps 762 mmHg 81%
    02:00 +7°C° 0 mm 2 mps 762 mmHg 81%
    03:00 +7°C° 0 mm 2 mps 763 mmHg 81%
    04:00 +7°C° 0 mm 2 mps 763 mmHg 81%
    05:00 +8°C° 0 mm 1 mps 763 mmHg 82%
    06:00 +7°C° 0 mm 1 mps 764 mmHg 83%
    07:00 +9°C° 0 mm 1 mps 764 mmHg 77%
    08:00 +10°C° 0 mm 1 mps 764 mmHg 72%
    09:00 +12°C° 0 mm 1 mps 765 mmHg 66%
    10:00 +13°C° 0 mm 1 mps 765 mmHg 64%
    11:00 +14°C° 0 mm 1 mps 765 mmHg 62%
    12:00 +15°C° 0 mm 1 mps 765 mmHg 60%
    13:00 +15°C° 0 mm 1 mps 765 mmHg 59%
    14:00 +15°C° 0 mm 1 mps 765 mmHg 59%
    15:00 +15°C° 0 mm 1 mps 765 mmHg 58%
    16:00 +15°C° 0 mm 1 mps 765 mmHg 60%
    17:00 +15°C° 0 mm 1 mps 765 mmHg 63%
    18:00 +14°C° 0 mm 1 mps 765 mmHg 65%
    19:00 +13°C° 0 mm 1 mps 765 mmHg 69%
    20:00 +11°C° 0 mm 1 mps 766 mmHg 74%
    21:00 +10°C° 0 mm 1 mps 766 mmHg 78%
    22:00 +10°C° 0 mm 1 mps 766 mmHg 81%
    23:00 +10°C° 0 mm 1 mps 766 mmHg 83%

    29 April, Monday

    Time Temperature Precipitation Wind Pressure Humidity
    00:00 +9°C° 0 mm 1 mps 766 mmHg 86%
    01:00 +9°C° 0 mm 1 mps 766 mmHg 87%
    02:00 +9°C° 0 mm 1 mps 766 mmHg 88%
    03:00 +8°C° 0 mm 2 mps 766 mmHg 89%
    04:00 +8°C° 0 mm 2 mps 766 mmHg 89%
    05:00 +8°C° 0 mm 2 mps 766 mmHg 89%
    06:00 +8°C° 0 mm 2 mps 767 mmHg 88%
    07:00 +9°C° 0 mm 2 mps 767 mmHg 82%
    08:00 +12°C° 0 mm 2 mps 767 mmHg 76%
    09:00 +14°C° 0 mm 2 mps 767 mmHg 69%
    10:00 +14°C° 0 mm 2 mps 767 mmHg 67%
    11:00 +15°C° 0 mm 2 mps 767 mmHg 65%
    12:00 +16°C° 0 mm 3 mps 767 mmHg 63%
    13:00 +16°C° 0 mm 2 mps 767 mmHg 61%
    14:00 +17°C° 0 mm 2 mps 767 mmHg 59%
    15:00 +17°C° 0 mm 2 mps 767 mmHg 57%
    16:00 +17°C° 0 mm 2 mps 767 mmHg 62%
    17:00 +16°C° 0 mm 1 mps 767 mmHg 66%
    18:00 +16°C° 0 mm 1 mps 767 mmHg 70%
    19:00 +14°C° 0 mm 1 mps 768 mmHg 75%
    20:00 +13°C° 0 mm 1 mps 768 mmHg 80%
    21:00 +11°C° 0 mm 1 mps 768 mmHg 84%
    22:00 +11°C° 0 mm 1 mps 768 mmHg 86%
    23:00 +10°C° 0 mm 1 mps 768 mmHg 88%

    30 April, Tuesday

    Time Temperature Precipitation Wind Pressure Humidity
    00:00 +10°C° 0 mm 1 mps 768 mmHg 90%
    01:00 +9°C° 0 mm 1 mps 768 mmHg 91%
    02:00 +9°C° 0 mm 1 mps 768 mmHg 92%
    03:00 +8°C° 0 mm 1 mps 768 mmHg 92%
    04:00 +8°C° 0 mm 1 mps 768 mmHg 91%
    05:00 +7°C° 0 mm 2 mps 768 mmHg 90%
    06:00 +8°C° 0 mm 2 mps 768 mmHg 88%
    07:00 +9°C° 0 mm 2 mps 768 mmHg 81%
    08:00 +12°C° 0 mm 2 mps 768 mmHg 73%
    09:00 +13°C° 0 mm 3 mps 768 mmHg 66%
    10:00 +14°C° 0 mm 3 mps 768 mmHg 62%
    11:00 +16°C° 0 mm 3 mps 768 mmHg 59%
    12:00 +17°C° 0 mm 3 mps 768 mmHg 55%
    13:00 +17°C° 0 mm 3 mps 768 mmHg 57%
    14:00 +18°C° 0 mm 4 mps 768 mmHg 59%
    15:00 +18°C° 0 mm 4 mps 767 mmHg 60%
    16:00 +17°C° 0 mm 4 mps 767 mmHg 60%
    17:00 +15°C° 0 mm 4 mps 767 mmHg 59%
    18:00 +14°C° 0 mm 4 mps 767 mmHg 58%
    19:00 +12°C° 0 mm 3 mps 768 mmHg 63%
    20:00 +10°C° 0 mm 3 mps 768 mmHg 67%
    21:00 +8°C° 0 mm 2 mps 768 mmHg 72%
    22:00 +8°C° 0 mm 2 mps 768 mmHg 72%
    23:00 +7°C° 0 mm 2 mps 768 mmHg 73%
    Show more